Location: ??
(35.5052°N, 139.7262°E)
Time: 18:24:11
(UTC+00:00)

USA 306 - Pass Details

Date: 20 June 2021
Orbit: 566 x 573 km, 54.0° (Epoch: 16 July)

Event Time Altitude Azimuth Distance (km) Brightness Sun altitude
Exits shadow 15:55:36 39° 13° (NNE) 858 4.2 -28.6°
Drops below altitude 10° 15:58:32 10° 37° (NE) 1,871 6.4 -28.4°
Sets 16:00:49 0° 41° (NE) 2,769 7.4 -28.2°
